Wind_Speed
58 59 45 46 57 54 46 40 38 34 31 28 25 22 19 18 17 17 17 17 16 16 18 18 17 17 18 19 21 21 22 24 27 30 31 32 33 35 37 37 37 34 25
64 55 50 38 55 53 48 44 42 37 34 32 27 24 22 20 19 19 20 19 19 18 18 19 19 19 20 20 21 22 24 26 27 28 30 31 33 36 37 36 36 31 24
66 63 53 49 53 52 53 50 45 42 39 35 30 27 25 22 21 20 21 22 21 20 21 21 21 22 22 22 23 23 24 26 27 28 29 31 33 35 36 36 35 30 23
66 67 60 56 59 55 53 53 51 45 44 39 33 29 27 26 23 22 23 24 25 24 23 23 23 24 25 26 26 26 26 27 27 29 30 32 33 34 35 36 35 31 24
73 69 60 61 47 39 44 55 54 50 46 40 34 31 29 27 26 25 25 26 27 28 27 27 27 27 28 29 29 28 28 27 28 29 30 32 34 35 36 36 35 29 25
71 71 65 62 67 53 47 40 37 53 53 45 36 34 33 29 28 27 29 30 29 31 31 30 30 30 31 31 31 30 29 28 29 30 32 33 34 35 36 36 35 32 26
65 69 69 64 56 55 54 53 44 45 53 42 39 38 35 32 33 32 31 33 32 33 34 33 33 34 33 33 33 31 30 30 31 32 32 34 35 36 36 36 36 34 29
63 66 68 63 56 56 51 49 48 51 48 44 38 38 37 35 34 36 36 35 34 37 36 37 35 36 35 35 34 32 32 32 32 33 33 35 37 37 37 36 36 33 32
56 61 66 65 58 57 56 56 53 60 49 46 46 42 43 38 36 41 38 38 40 42 41 41 40 38 38 37 35 34 34 34 35 35 35 37 39 39 38 38 36 36 35
45 48 58 62 63 59 59 60 62 67 62 45 45 41 43 39 38 37 41 46 42 43 43 44 42 40 40 39 36 36 37 36 37 37 37 40 41 41 40 40 38 37 36
36 42 51 61 59 64 61 58 62 63 63 52 47 47 39 42 41 39 40 40 43 46 45 46 44 43 42 40 38 38 38 38 39 39 40 42 44 42 42 42 41 40 40
37 38 40 54 61 60 61 62 60 63 62 51 50 50 49 45 40 43 44 43 48 50 47 48 46 45 44 41 40 40 41 40 41 42 43 44 45 45 45 44 43 43 43
31 39 38 40 53 56 57 58 58 62 60 53 52 51 51 48 49 49 46 45 52 51 49 49 49 47 45 42 42 43 43 43 44 45 45 47 47 47 47 47 46 46 44
31 36 41 37 38 46 50 52 54 55 54 54 54 52 50 49 50 52 50 49 47 48 52 50 50 49 46 43 44 45 46 47 47 48 48 49 50 50 50 49 50 49 47
33 33 38 39 35 34 40 47 49 51 53 54 54 53 53 53 52 49 50 50 51 53 52 50 51 49 46 45 47 48 49 50 51 50 50 52 52 53 52 53 54 52 51
31 35 37 38 39 39 38 42 50 53 53 54 54 55 57 57 54 53 54 55 56 54 51 50 49 47 47 47 49 51 52 53 53 52 53 54 55 55 56 56 54 55 56
22 30 36 37 39 39 39 42 46 50 53 55 55 55 53 53 53 54 55 56 54 51 50 50 48 47 47 51 53 55 55 56 55 55 56 57 58 59 58 57 58 59 59
22 22 26 29 31 34 35 38 41 42 45 47 50 52 51 51 51 52 53 54 50 50 50 47 49 52 53 54 55 57 56 57 58 59 60 60 59 60 61 61 61 61 61
25 25 26 28 30 30 31 34 38 40 41 42 45 47 48 50 52 53 52 51 50 50 50 51 55 56 56 56 57 58 59 62 62 61 60 62 63 62 63 63 62 61 59
28 30 31 31 32 33 35 36 38 41 43 44 46 47 49 51 51 52 51 51 52 54 55 56 57 57 56 57 60 62 63 64 63 62 62 62 64 62 61 60 59 59 60
27 27 30 33 35 37 38 39 40 42 43 43 44 45 46 47 49 51 54 55 56 57 56 57 57 58 60 61 64 65 65 64 62 62 61 61 60 60 59 58 58 59 60
32 33 33 34 35 36 38 39 41 43 45 46 48 49 51 52 53 54 55 55 55 56 58 59 60 61 63 65 65 63 61 59 58 58 59 59 58 58 58 59 60 61 62
38 38 38 38 39 40 40 41 42 42 44 45 46 48 50 51 52 54 55 56 58 59 60 61 63 64 61 60 59 57 57 56 56 56 56 57 57 58 60 60 61 62 62
41 42 42 43 45 46 46 46 46 46 46 48 50 50 52 53 54 56 57 58 60 62 63 62 61 57 56 55 54 55 53 53 54 56 56 57 59 60 61 62 62 62 63
47 47 46 45 47 49 50 50 50 49 49 50 52 53 54 55 56 57 58 59 59 58 57 55 54 51 51 51 53 55 54 54 56 59 59 61 62 62 62 63 62 63 65
44 46 47 48 50 50 50 51 50 49 50 51 52 53 54 53 53 53 53 53 52 52 52 52 52 52 52 54 55 58 58 58 60 60 63 63 62 63 64 64 64 65 65
Wind_Direction
239 234 234 203 211 211 212 213 212 214 218 223 226 233 244 254 267 277 284 284 289 287 280 280 284 286 285 284 287 291 296 303 307 309 311 316 322 327 328 332 333 331 326
234 241 238 203 205 210 209 211 213 214 218 224 228 235 245 254 267 277 283 287 286 286 287 284 285 286 287 289 291 297 302 305 306 309 312 318 323 326 328 330 329 325 317
237 236 232 227 219 219 212 215 215 215 220 226 228 236 246 255 265 275 285 287 286 284 284 284 285 288 290 294 298 301 303 303 304 308 313 318 321 323 326 327 324 319 308
237 239 235 237 229 211 215 215 218 219 222 223 227 233 245 254 261 271 281 287 286 282 281 282 285 290 292 295 297 298 299 300 304 309 313 317 319 321 323 323 322 317 300
239 240 235 237 236 226 220 222 221 220 221 223 226 234 240 249 259 270 280 283 285 282 279 281 285 289 293 295 296 297 297 300 304 308 311 314 317 319 320 320 319 312 298
236 239 237 237 241 248 243 245 247 226 221 219 223 235 240 244 256 267 275 280 282 283 280 282 286 289 292 295 296 296 296 299 303 306 309 313 315 315 315 314 314 310 295
238 238 239 239 239 239 246 253 249 246 234 226 232 232 242 251 258 261 269 276 280 283 282 282 285 289 292 295 295 295 296 298 301 305 307 311 311 311 310 310 309 307 291
236 238 238 240 239 239 239 237 248 241 244 232 226 238 247 253 254 263 267 270 275 278 284 283 283 287 290 293 295 294 295 296 300 303 305 308 307 305 305 305 304 302 289
235 239 237 236 236 237 239 237 245 237 232 239 238 239 247 254 263 267 262 267 270 274 277 282 281 284 288 292 293 292 293 296 299 300 302 304 302 300 301 302 301 300 292
230 236 242 239 236 237 237 237 242 243 253 250 256 255 258 255 266 267 271 266 271 270 272 278 278 282 287 290 290 290 292 294 297 299 299 300 298 297 299 299 296 295 289
237 236 235 238 236 235 235 236 240 244 252 257 255 257 259 265 267 268 265 267 268 269 272 275 277 281 285 287 288 288 290 293 296 297 295 295 294 295 295 295 294 294 291
234 238 241 238 236 235 234 235 236 241 246 249 250 250 255 258 262 265 262 263 266 272 271 273 276 279 285 286 287 288 289 293 294 293 292 292 291 291 292 294 294 295 292
238 233 237 241 239 239 234 233 235 238 242 242 245 249 253 254 256 260 258 263 268 266 268 273 276 281 284 285 286 288 290 291 290 289 290 289 289 289 290 291 293 295 290
238 235 235 241 241 240 241 238 235 237 237 238 242 246 250 253 253 255 259 259 263 265 268 273 278 281 284 285 285 286 287 288 287 287 288 288 287 288 290 292 293 292 287
237 237 236 238 242 241 238 236 239 239 239 241 243 245 247 249 250 250 256 260 264 267 270 274 277 282 284 283 285 286 286 285 285 285 287 287 287 288 290 291 291 289 287
246 240 237 237 240 241 243 241 235 234 237 239 241 243 245 246 250 253 257 261 265 269 272 276 279 281 282 287 284 283 282 283 284 285 286 286 287 288 290 290 290 290 289
247 246 245 245 243 244 246 248 245 239 236 237 239 241 246 249 252 255 258 262 265 270 274 276 280 284 284 280 279 279 281 283 284 285 285 286 288 289 290 289 289 288 287
247 244 236 242 247 248 246 245 244 243 242 241 242 244 248 251 255 259 261 264 270 272 276 280 280 275 274 276 278 280 283 283 283 284 286 287 288 289 288 288 287 286 286
239 239 240 242 241 241 245 244 239 237 239 239 242 245 249 253 256 260 264 266 269 272 273 272 270 272 274 278 280 281 282 282 284 285 286 287 287 287 286 286 286 286 286
244 242 240 239 239 237 237 238 239 238 239 241 241 243 247 251 256 260 264 265 267 267 268 269 273 275 277 279 280 281 282 282 283 286 286 285 286 287 287 288 288 287 286
246 247 246 246 246 244 241 237 234 234 236 238 241 244 247 250 252 255 257 260 264 266 268 270 273 276 277 278 278 279 280 282 284 285 285 285 287 288 287 287 286 285 285
241 240 242 244 243 243 244 246 248 249 248 246 246 247 248 251 254 257 260 264 266 269 270 272 274 275 275 276 279 280 282 284 283 283 284 286 287 287 287 287 286 285 285
249 251 249 245 243 242 245 247 249 250 252 254 254 256 257 259 261 263 264 265 266 267 269 270 271 274 278 277 279 280 281 282 284 285 287 287 288 286 285 284 284 285 285
254 255 255 254 255 256 253 249 248 249 250 254 255 256 258 259 260 262 264 266 267 268 270 272 274 275 275 278 280 280 282 284 284 285 287 287 285 285 285 285 284 284 284
260 262 261 261 259 260 262 263 263 263 262 261 261 261 261 261 262 263 264 266 267 269 271 273 274 275 275 276 277 279 281 282 283 284 284 283 283 284 284 285 285 284 283
254 254 256 258 261 262 263 264 263 262 263 264 265 265 265 266 266 267 267 268 269 270 270 271 272 273 274 275 276 278 279 278 279 280 281 283 284 284 284 284 283 281 281
Height
5750 5755 5752 5774 5778 5784 5794 5802 5807 5811 5815 5818 5821 5825 5827 5829 5831 5832 5832 5833 5833 5832 5832 5832 5831 5830 5829 5829 5828 5828 5828 5827 5825 5823 5821 5819 5816 5812 5808 5803 5798 5794 5790
5745 5751 5762 5759 5766 5778 5786 5793 5799 5803 5807 5812 5815 5818 5821 5823 5825 5826 5827 5827 5828 5828 5827 5827 5826 5826 5824 5824 5823 5823 5822 5821 5820 5818 5816 5813 5809 5806 5802 5797 5793 5789 5786
5737 5746 5757 5765 5767 5771 5777 5785 5791 5795 5800 5805 5808 5811 5814 5817 5819 5821 5821 5822 5822 5822 5822 5822 5822 5821 5820 5819 5818 5817 5816 5815 5814 5812 5810 5807 5804 5800 5796 5792 5788 5784 5781
5729 5735 5749 5752 5739 5759 5766 5774 5781 5787 5792 5796 5800 5803 5807 5810 5812 5814 5816 5816 5816 5816 5817 5817 5816 5816 5815 5814 5813 5812 5810 5809 5808 5806 5804 5801 5798 5794 5791 5787 5782 5779 5776
5722 5730 5742 5748 5739 5749 5760 5764 5771 5778 5784 5788 5792 5796 5800 5803 5805 5807 5809 5810 5810 5810 5811 5810 5810 5810 5809 5808 5807 5805 5804 5803 5802 5800 5797 5794 5791 5788 5785 5781 5777 5774 5771
5708 5715 5729 5736 5740 5745 5750 5757 5763 5768 5773 5777 5782 5788 5793 5795 5798 5800 5801 5803 5804 5804 5804 5804 5803 5803 5802 5801 5800 5798 5797 5796 5794 5792 5790 5788 5785 5782 5778 5774 5770 5767 5765
5696 5705 5712 5723 5731 5738 5744 5750 5755 5760 5764 5767 5774 5780 5785 5788 5789 5791 5793 5795 5796 5797 5797 5796 5796 5795 5795 5794 5792 5791 5790 5788 5787 5785 5783 5781 5778 5775 5771 5767 5764 5760 5758
5684 5692 5702 5712 5721 5729 5737 5741 5746 5750 5756 5758 5763 5770 5775 5778 5780 5784 5784 5786 5788 5789 5789 5789 5788 5787 5786 5785 5785 5784 5782 5780 5779 5777 5775 5772 5770 5767 5763 5760 5756 5753 5750
5676 5680 5688 5699 5709 5718 5727 5734 5738 5739 5747 5751 5755 5761 5765 5769 5771 5774 5775 5777 5779 5780 5780 5780 5779 5779 5778 5777 5776 5775 5773 5772 5770 5768 5766 5764 5761 5758 5755 5752 5749 5746 5742
5667 5672 5677 5688 5700 5707 5716 5721 5727 5732 5734 5739 5747 5752 5757 5760 5762 5764 5765 5767 5769 5770 5771 5770 5770 5769 5769 5768 5767 5765 5764 5762 5761 5759 5757 5755 5753 5749 5746 5743 5741 5738 5734
5663 5665 5669 5675 5686 5695 5702 5710 5716 5720 5724 5730 5736 5741 5745 5748 5750 5753 5756 5757 5759 5761 5761 5761 5760 5760 5759 5758 5757 5756 5754 5753 5751 5749 5747 5745 5743 5740 5736 5734 5731 5728 5726
5653 5658 5663 5666 5670 5682 5689 5696 5703 5709 5715 5721 5725 5729 5733 5736 5738 5742 5745 5746 5749 5750 5750 5750 5749 5748 5748 5747 5746 5746 5744 5742 5741 5739 5736 5734 5732 5729 5726 5724 5722 5719 5716
5643 5648 5654 5657 5662 5669 5677 5684 5692 5698 5704 5709 5713 5717 5720 5724 5728 5732 5733 5735 5737 5737 5738 5738 5738 5737 5736 5736 5735 5734 5733 5731 5729 5726 5724 5722 5720 5717 5715 5712 5710 5708 5705
5636 5639 5644 5650 5654 5660 5667 5673 5680 5686 5690 5696 5701 5705 5709 5712 5716 5719 5722 5723 5724 5725 5726 5725 5725 5725 5724 5724 5723 5722 5720 5718 5716 5714 5712 5710 5707 5705 5703 5701 5698 5695 5693
5629 5632 5635 5641 5647 5652 5656 5662 5667 5673 5679 5685 5689 5694 5696 5700 5704 5707 5709 5710 5711 5712 5713 5712 5713 5712 5711 5710 5710 5709 5707 5705 5703 5701 5699 5696 5694 5692 5690 5687 5685 5682 5680
5623 5625 5628 5632 5636 5641 5646 5650 5655 5661 5665 5670 5676 5681 5684 5688 5692 5695 5695 5697 5697 5699 5699 5699 5699 5698 5698 5697 5696 5695 5693 5691 5690 5687 5685 5683 5680 5678 5676 5673 5671 5668 5665
5614 5617 5620 5624 5627 5631 5634 5638 5642 5647 5653 5658 5663 5667 5672 5676 5679 5680 5682 5684 5685 5685 5685 5685 5685 5685 5684 5682 5681 5680 5679 5678 5676 5673 5670 5668 5665 5663 5661 5658 5655 5652 5649
5606 5609 5612 5615 5618 5621 5624 5628 5632 5636 5641 5646 5651 5655 5659 5663 5666 5668 5669 5670 5671 5671 5671 5671 5671 5670 5669 5667 5667 5666 5664 5663 5661 5658 5655 5651 5649 5646 5644 5641 5638 5635 5633
5600 5602 5604 5606 5609 5613 5616 5620 5624 5627 5631 5635 5640 5644 5647 5650 5652 5654 5656 5656 5656 5657 5656 5656 5655 5654 5654 5653 5653 5651 5649 5647 5644 5641 5638 5635 5632 5629 5627 5624 5621 5618 5616
5595 5595 5597 5598 5601 5603 5606 5610 5614 5617 5621 5624 5626 5630 5633 5636 5639 5641 5641 5642 5642 5642 5642 5641 5640 5640 5639 5638 5637 5635 5632 5630 5628 5624 5621 5618 5615 5613 5610 5608 5605 5603 5600
5586 5588 5589 5591 5593 5595 5598 5600 5603 5605 5609 5612 5616 5618 5621 5623 5625 5626 5627 5627 5627 5627 5627 5626 5625 5624 5623 5622 5620 5618 5616 5613 5609 5607 5604 5601 5599 5597 5594 5591 5588 5585 5582
5576 5578 5579 5582 5584 5586 5588 5591 5594 5596 5598 5600 5603 5604 5606 5608 5610 5611 5611 5612 5612 5612 5611 5610 5609 5607 5606 5605 5603 5601 5598 5595 5592 5590 5588 5586 5583 5580 5578 5575 5572 5569 5565
5566 5568 5569 5570 5572 5574 5577 5580 5581 5584 5586 5588 5591 5592 5593 5595 5595 5596 5596 5596 5596 5594 5593 5592 5591 5591 5590 5587 5585 5583 5581 5579 5576 5574 5572 5569 5566 5564 5560 5558 5554 5551 5548
5553 5555 5558 5560 5560 5562 5563 5565 5568 5570 5573 5574 5574 5576 5578 5579 5579 5579 5579 5579 5577 5576 5576 5576 5575 5575 5572 5570 5568 5566 5565 5563 5560 5558 5556 5553 5550 5547 5543 5539 5536 5533 5529
5540 5542 5543 5545 5546 5547 5548 5549 5551 5554 5556 5557 5558 5559 5560 5560 5561 5561 5560 5560 5560 5560 5560 5559 5558 5558 5556 5554 5552 5551 5549 5547 5544 5542 5539 5536 5532 5528 5525 5521 5518 5514 5510
5525 5527 5528 5530 5531 5532 5533 5533 5535 5537 5538 5539 5540 5541 5541 5542 5543 5543 5543 5544 5544 5544 5544 5543 5543 5542 5540 5538 5536 5534 5533 5531 5528 5526 5522 5518 5514 5510 5506 5504 5500 5495 5491